Stations météo

Publicité
Socoa, France (7600): Température de l'air & dewpoint: 18.05.2017 11:00:00 - 24.05.2017 11:00:00 (CEST)Socoa, France (7600): Vitesse du vent & gusts: 18.05.2017 11:00:00 - 24.05.2017 11:00:00 (CEST)Socoa, France (7600): Direction du vent: 18.05.2017 11:00:00 - 24.05.2017 11:00:00 (CEST)Socoa, France (7600): reduced air pressure: 18.05.2017 11:00:00 - 24.05.2017 11:00:00 (CEST)Socoa, France (7600): visibility: 18.05.2017 11:00:00 - 24.05.2017 11:00:00 (CEST)Socoa, France (7600): Quantités de précipitations: 18.05.2017 11:00:00 - 24.05.2017 11:00:00 (CEST)
Date & Time tt [°C] td [°C] ff [km/h] ff [knt] fx [km/h] fx [knt] dd ppp [hPa] vv [km] rr [mm]
24.05.2017 11:00:00 18,7 15,0 6 4 11 6 NNW 1021,9 15 0,0
24.05.2017 10:00:00 17,5 14,2 5 3 9 5 N 1022,4 - 0,0
24.05.2017 09:00:00 15,7 14,6 3 2 6 3 NW 1022,5 - 0,0
24.05.2017 08:00:00 13,2 12,7 4 2 10 6 SE 1022,4 5 0,2
24.05.2017 07:00:00 11,9 11,3 4 2 10 5 SSE 1022,5 - 0,0
24.05.2017 06:00:00 12,3 11,7 4 2 9 5 S 1022,5 - 0,0
24.05.2017 05:00:00 12,5 11,6 8 4 10 5 S 1022,6 - 0,0
24.05.2017 04:00:00 12,9 12,0 8 4 10 5 S 1023,2 - 0,0
24.05.2017 03:00:00 13,5 12,6 6 3 9 5 SSW 1023,6 - 0,0
24.05.2017 02:00:00 13,9 12,9 8 4 10 5 SSW 1024,0 - 0,0
24.05.2017 01:00:00 14,5 13,2 5 3 14 7 SSW 1024,3 - 0,0
24.05.2017 00:00:00 15,5 14,2 9 5 22 12 NE 1024,4 - 0,0
23.05.2017 23:00:00 15,8 14,2 14 8 19 11 NE 1024,5 20 0,0
23.05.2017 22:00:00 16,0 14,0 14 7 18 10 NE 1024,2 - 0,0
23.05.2017 21:00:00 17,4 13,3 10 5 15 8 NNE 1024,0 - 0,0
23.05.2017 20:00:00 18,6 13,0 9 5 17 9 NNE 1023,8 20 0,0
23.05.2017 19:00:00 18,2 13,7 15 8 19 11 NNE 1024,0 - 0,0
23.05.2017 18:00:00 18,2 13,5 16 9 23 12 NNE 1024,2 - 0,0
23.05.2017 17:00:00 18,4 12,6 16 9 27 14 N 1024,5 20 0,0
23.05.2017 16:00:00 18,7 12,7 17 9 31 17 N 1024,5 - 0,0
23.05.2017 15:00:00 18,9 11,7 15 8 24 13 N 1024,7 - 0,0
23.05.2017 14:00:00 19,6 12,4 13 7 22 12 N 1025,2 17 0,0
23.05.2017 13:00:00 19,4 11,7 13 7 22 12 N 1025,6 - 0,0
23.05.2017 12:00:00 19,0 11,6 12 7 15 8 N 1025,6 - 0,0
23.05.2017 11:00:00 18,4 11,2 8 5 12 6 NW 1025,6 15 0,0
23.05.2017 10:00:00 17,3 10,9 7 4 13 7 SW 1025,5 - 0,0
23.05.2017 09:00:00 15,6 11,0 7 4 11 6 SW 1025,3 - 0,0
23.05.2017 08:00:00 15,1 10,7 8 4 13 7 SW 1025,0 10 0,0
23.05.2017 07:00:00 14,8 10,4 8 5 14 8 SW 1024,4 - 0,0
23.05.2017 06:00:00 15,0 10,8 9 5 21 12 WSW 1024,0 - 0,0
23.05.2017 05:00:00 15,3 10,7 18 10 26 14 W 1024,0 10 0,0
23.05.2017 04:00:00 15,4 11,4 22 12 30 16 WNW 1024,0 - 0,0
23.05.2017 03:00:00 15,4 11,2 26 14 32 18 W 1023,9 - 0,0
23.05.2017 02:00:00 15,5 11,7 22 12 32 17 W 1023,9 - 0,0
23.05.2017 01:00:00 15,5 12,1 19 11 27 15 W 1023,9 - 0,0
23.05.2017 00:00:00 15,3 11,5 14 8 27 15 WSW 1023,8 - 0,0
22.05.2017 23:00:00 15,2 11,6 16 9 29 16 WSW 1023,7 10 0,0
22.05.2017 22:00:00 15,4 11,6 21 12 31 17 W 1022,8 - 0,0
22.05.2017 21:00:00 15,6 12,2 22 12 33 18 W 1022,2 - 0,0
22.05.2017 20:00:00 15,8 12,0 27 14 36 19 W 1021,3 6 0,0
22.05.2017 19:00:00 16,3 13,0 28 15 39 21 W 1021,1 - 0,0
22.05.2017 18:00:00 16,4 13,1 28 15 43 23 W 1021,1 - 0,0
22.05.2017 17:00:00 16,6 13,5 29 16 39 21 W 1020,8 6 0,0
22.05.2017 16:00:00 17,1 14,0 29 16 - - W 1020,9 - 0,0
22.05.2017 15:00:00 17,6 14,1 29 15 - - W 1020,6 - 0,0
22.05.2017 14:00:00 18,1 14,4 32 17 44 24 W 1019,8 - 0,0
22.05.2017 13:00:00 18,1 14,6 35 19 41 22 WNW 1019,0 - 0,0
22.05.2017 12:00:00 19,0 15,1 31 17 44 24 W 1018,6 - 0,0
22.05.2017 11:00:00 20,7 14,6 25 14 35 19 W 1017,5 15 0,0
22.05.2017 10:00:00 20,1 14,5 20 11 25 14 WNW 1016,5 - 0,0
22.05.2017 09:00:00 19,6 14,2 12 7 17 9 W 1015,2 - 0,0
22.05.2017 08:00:00 18,7 13,8 9 5 19 11 S 1014,5 18 0,0
22.05.2017 07:00:00 18,2 13,1 14 7 25 13 WSW 1014,3 - 0,0
22.05.2017 06:00:00 18,3 13,4 12 7 42 23 SW 1014,2 - 0,0
22.05.2017 05:00:00 17,6 14,5 37 20 58 31 W 1014,1 25 0,6
22.05.2017 04:00:00 24,7 10,6 10 5 55 30 WSW 1011,7 - 0,0
22.05.2017 03:00:00 26,8 8,7 36 20 63 34 S 1010,4 - 0,0
22.05.2017 02:00:00 26,8 9,2 37 20 66 35 S 1010,5 25 0,0
22.05.2017 01:00:00 25,7 9,9 14 8 29 15 S 1011,4 - 0,0
22.05.2017 00:00:00 24,6 10,1 8 4 25 13 SSW 1011,9 - 0,0
21.05.2017 23:00:00 23,2 11,3 14 7 33 18 SSE 1012,1 - 0,0
21.05.2017 22:00:00 22,4 12,1 16 9 24 13 ESE 1012,0 - 0,0
21.05.2017 21:00:00 23,8 11,5 12 7 32 18 E 1012,2 - 0,0
21.05.2017 20:00:00 24,4 11,0 6 4 33 18 E 1012,4 25 0,0
21.05.2017 19:00:00 24,3 12,3 19 11 28 15 ESE 1012,7 - 0,0
21.05.2017 18:00:00 25,2 11,7 22 12 35 19 SE 1013,2 - 0,0
21.05.2017 17:00:00 26,1 12,5 22 12 38 21 ESE 1014,1 - 0,0
21.05.2017 16:00:00 27,2 11,6 23 13 39 21 ESE 1014,9 - 0,0
21.05.2017 15:00:00 26,5 10,6 29 15 41 22 E 1015,4 - 0,0
21.05.2017 14:00:00 26,9 12,9 26 14 32 18 E 1016,4 25 0,0
21.05.2017 13:00:00 24,8 12,4 19 10 27 15 ENE 1017,5 - 0,0
21.05.2017 12:00:00 23,2 11,6 21 12 27 15 E 1018,2 - 0,0
21.05.2017 11:00:00 21,2 12,1 14 7 24 13 E 1018,6 - 0,0
21.05.2017 10:00:00 17,6 10,0 14 8 22 12 ESE 1019,2 - 0,0
21.05.2017 09:00:00 14,0 8,0 14 7 32 17 SE 1019,6 - 0,0
21.05.2017 08:00:00 11,1 8,7 18 10 26 14 ESE 1019,9 20 0,0
21.05.2017 07:00:00 9,2 8,3 10 6 16 9 SE 1020,7 - 0,0
21.05.2017 06:00:00 9,0 7,9 6 4 10 6 SE 1020,9 - 0,0
21.05.2017 05:00:00 9,4 8,3 8 4 11 6 SE 1021,4 20 0,0
21.05.2017 04:00:00 9,7 8,5 6 3 11 6 SSE 1022,3 - 0,0
21.05.2017 03:00:00 9,9 8,7 9 5 12 6 SSW 1023,1 - 0,0
21.05.2017 02:00:00 10,2 8,6 5 3 8 5 SE 1023,9 - 0,0
21.05.2017 01:00:00 10,9 9,0 3 2 9 5 SE 1024,4 - 0,0
21.05.2017 00:00:00 11,7 9,3 8 4 13 7 S 1024,7 - 0,0
20.05.2017 23:00:00 13,0 9,6 5 3 20 11 SSE 1025,2 20 0,0
20.05.2017 22:00:00 14,6 10,2 10 6 23 12 ENE 1025,4 - 0,0
20.05.2017 21:00:00 15,3 9,2 16 9 23 12 NE 1025,4 - 0,0
20.05.2017 20:00:00 16,4 8,9 16 9 22 12 NE 1025,3 25 0,0
20.05.2017 19:00:00 18,1 10,0 11 6 18 10 NE 1025,5 - 0,0
20.05.2017 18:00:00 18,7 10,3 11 6 18 10 NNE 1025,8 - 0,0
20.05.2017 17:00:00 17,3 10,4 13 7 20 11 N 1026,1 25 0,0
20.05.2017 16:00:00 17,9 10,5 11 6 17 9 N 1026,4 - 0,0
20.05.2017 15:00:00 18,8 11,8 12 6 21 11 NW 1026,8 - 0,0
20.05.2017 14:00:00 17,7 11,0 15 8 22 12 WNW 1026,9 25 0,0
20.05.2017 13:00:00 18,1 10,7 14 8 30 16 NW 1026,9 - 0,0
20.05.2017 12:00:00 17,8 10,9 19 10 30 16 W 1026,7 - 0,0
20.05.2017 11:00:00 16,8 10,9 19 10 30 16 W 1026,5 - 0,0
20.05.2017 10:00:00 14,2 10,8 20 11 33 18 WSW 1025,9 - 0,0
20.05.2017 09:00:00 12,9 11,1 19 10 46 25 WSW 1025,6 - 0,6
20.05.2017 08:00:00 12,2 10,8 17 9 53 28 WSW 1025,1 6 1,0
20.05.2017 07:00:00 13,0 9,1 19 10 43 23 WSW 1024,0 - 0,0
20.05.2017 06:00:00 11,5 7,4 16 8 22 12 SSW 1023,3 - 0,0
20.05.2017 05:00:00 11,5 7,2 12 6 20 11 S 1023,6 20 0,0
20.05.2017 04:00:00 11,4 6,5 14 8 20 11 SSW 1023,6 - 0,0
20.05.2017 03:00:00 11,3 7,2 15 8 19 10 S 1024,0 - 0,0
20.05.2017 02:00:00 10,7 7,8 15 8 18 10 S 1024,4 - 0,0
20.05.2017 01:00:00 11,6 8,3 13 7 15 8 SSW 1024,3 - 0,0
20.05.2017 00:00:00 12,9 8,0 12 6 21 11 SSW 1024,6 - 0,0
19.05.2017 23:00:00 13,2 8,1 14 8 19 10 SW 1024,6 20 0,0
19.05.2017 22:00:00 13,5 7,7 12 6 23 13 SW 1024,4 - 0,0
19.05.2017 21:00:00 14,2 8,2 13 7 28 15 WSW 1024,3 - 0,0
19.05.2017 20:00:00 14,8 8,3 19 11 36 19 W 1024,2 - 0,0
19.05.2017 19:00:00 15,0 9,6 24 13 45 24 W 1024,1 - 0,0
19.05.2017 18:00:00 16,3 9,0 35 19 46 25 WNW 1023,8 - 0,0
19.05.2017 17:00:00 16,7 9,1 30 16 47 26 W 1023,5 20 0,0
19.05.2017 16:00:00 16,7 9,1 34 19 53 29 WNW 1023,2 - 0,0
19.05.2017 15:00:00 15,3 8,8 39 21 51 28 WNW 1023,1 - 0,0
19.05.2017 14:00:00 15,5 10,9 29 16 53 29 WNW 1022,9 15 0,2
19.05.2017 13:00:00 15,3 9,0 27 15 40 21 W 1022,9 - 0,0
19.05.2017 12:00:00 13,5 10,3 34 18 50 27 W 1022,9 - 0,2
19.05.2017 11:00:00 13,2 10,6 18 10 35 19 WSW 1022,5 - 0,6
19.05.2017 10:00:00 11,5 9,2 21 12 35 19 SW 1022,4 - 1,2
19.05.2017 09:00:00 11,8 8,6 19 10 36 19 SW 1021,9 - 0,2
19.05.2017 08:00:00 11,0 7,7 18 10 31 17 WSW 1021,5 12 0,2
19.05.2017 07:00:00 11,0 6,9 21 11 32 18 SW 1020,8 - 0,2
19.05.2017 06:00:00 11,3 6,4 18 10 36 19 SW 1020,7 - 0,0
19.05.2017 05:00:00 11,1 7,0 23 12 35 19 WSW 1020,8 20 0,0
19.05.2017 04:00:00 10,5 6,4 21 11 30 16 SW 1020,8 - 0,0
19.05.2017 03:00:00 10,4 6,9 22 12 31 17 SW 1021,0 - 0,0
19.05.2017 02:00:00 10,8 8,0 17 9 38 21 SW 1021,2 - 0,0
19.05.2017 01:00:00 11,9 9,1 26 14 43 23 SW 1021,0 - 0,2
19.05.2017 00:00:00 13,2 9,8 25 14 50 27 W 1021,4 - 0,0
18.05.2017 23:00:00 14,4 10,4 31 17 45 24 WNW 1021,1 - 0,0
18.05.2017 22:00:00 13,9 9,5 27 15 47 25 W 1020,7 - 0,0
18.05.2017 21:00:00 14,3 8,9 40 22 52 28 WNW 1020,2 - 0,4
18.05.2017 20:00:00 14,4 8,3 36 19 56 31 WNW 1020,1 22 0,0
18.05.2017 19:00:00 14,5 9,5 34 18 51 28 WNW 1019,9 - 0,0
18.05.2017 18:00:00 13,9 10,3 30 16 54 29 WNW 1019,5 - 0,2
18.05.2017 17:00:00 13,5 10,3 15 8 27 15 SW 1019,5 - 0,0
18.05.2017 16:00:00 12,8 11,7 11 6 26 14 SW 1019,6 - 2,8
18.05.2017 15:00:00 12,0 10,7 17 9 27 14 WSW 1019,6 - 0,8
18.05.2017 14:00:00 11,6 10,2 13 7 36 19 SW 1019,4 - 1,4
18.05.2017 13:00:00 11,8 9,2 31 17 46 25 WNW 1019,7 - 2,1
18.05.2017 12:00:00 12,2 10,4 35 19 51 28 NW 1019,0 - 4,6
18.05.2017 11:00:00 12,8 9,6 41 22 68 37 NW 1018,8 - 0,8

tt = Température de l'air
td = dewpoint
ff = Vitesse du vent
fx = gusts
dd = Direction du vent
ppp = reduced air pressure
vv = visibility
rr = Quantités de précipitations

stations d'obs. à proximité